TimeCST,TemperatureF,Dew PointF,Humidity,Sea Level PressureIn,VisibilityMPH,Wind Direction,Wind SpeedMPH,Gust SpeedMPH,PrecipitationIn,Events,Conditions,WindDirDegrees,DateUTC
12:58 AM,39.2,28.9,67,30.11,10.0,North,3.5,-,N/A,,Clear,360,2013-02-21 06:58:00
1:58 AM,39.2,27.7,63,30.10,10.0,ENE,3.5,-,N/A,,Clear,60,2013-02-21 07:58:00
2:58 AM,36.0,28.9,76,30.09,10.0,NNE,5.8,-,N/A,,Clear,30,2013-02-21 08:58:00
3:58 AM,37.0,26.1,65,30.10,10.0,NNE,6.9,-,N/A,,Clear,30,2013-02-21 09:58:00
4:58 AM,37.8,25.5,61,30.12,10.0,NE,6.9,-,N/A,,Clear,40,2013-02-21 10:58:00
5:58 AM,34.0,27.5,77,30.12,10.0,NE,9.2,-,N/A,,Partly Cloudy,40,2013-02-21 11:58:00
6:58 AM,36.7,27.1,68,30.13,10.0,NE,10.4,-,N/A,,Clear,40,2013-02-21 12:58:00
7:58 AM,41.0,28.4,61,30.15,10.0,East,4.6,-,N/A,,Clear,80,2013-02-21 13:58:00
8:58 AM,48.7,28.2,45,30.15,10.0,East,9.2,-,N/A,,Clear,80,2013-02-21 14:58:00
9:58 AM,55.0,28.2,36,30.15,10.0,ENE,8.1,-,N/A,,Mostly Cloudy,60,2013-02-21 15:58:00
10:58 AM,60.4,29.3,31,30.12,10.0,ESE,10.4,-,N/A,,Clear,110,2013-02-21 16:58:00
11:58 AM,63.0,31.5,31,30.09,10.0,ESE,8.1,-,N/A,,Partly Cloudy,110,2013-02-21 17:58:00
12:58 PM,65.8,31.3,28,30.05,10.0,ESE,11.5,-,N/A,,Clear,110,2013-02-21 18:58:00
1:58 PM,68.2,33.3,27,30.02,10.0,SE,9.2,-,N/A,,Clear,130,2013-02-21 19:58:00
2:58 PM,69.4,35.2,28,29.99,10.0,ESE,8.1,-,N/A,,Clear,110,2013-02-21 20:58:00
3:58 PM,68.2,40.1,36,29.97,10.0,ESE,9.2,-,N/A,,Scattered Clouds,120,2013-02-21 21:58:00
4:58 PM,66.4,41.4,40,29.97,10.0,East,4.6,-,N/A,,Partly Cloudy,100,2013-02-21 22:58:00
5:58 PM,63.9,41.9,45,29.98,10.0,ESE,5.8,-,N/A,,Overcast,120,2013-02-21 23:58:00
6:58 PM,62.6,44.4,51,29.98,10.0,ESE,3.5,-,N/A,,Mostly Cloudy,110,2013-02-22 00:58:00
7:58 PM,62.2,48.4,60,30.00,10.0,East,5.8,-,N/A,,Mostly Cloudy,100,2013-02-22 01:58:00
8:58 PM,60.8,49.5,66,30.00,10.0,ESE,4.6,-,N/A,,Scattered Clouds,110,2013-02-22 02:58:00
9:58 PM,58.8,50.7,74,29.98,10.0,SE,9.2,-,N/A,,Clear,130,2013-02-22 03:58:00
10:58 PM,59.7,53.1,79,29.99,10.0,SE,5.8,-,N/A,,Clear,140,2013-02-22 04:58:00
11:58 PM,59.4,55.0,86,29.99,10.0,South,6.9,-,N/A,,Mostly Cloudy,170,2013-02-22 05:58:00